Theta_e
327 326 326 323 310 309 304 304 306 306 309 314 318 315 315 318 314 311 326 332 333 334 340 344 345 347 349 349 347 347 345 344 344 344 343 343 343 343 343 342 341 341 341 342 342 341 340 340 340
325 323 325 320 307 301 305 311 305 306 309 317 319 319 317 315 323 324 324 331 334 334 340 341 343 346 348 349 347 347 346 345 345 344 344 345 345 345 346 344 343 344 344 344 345 343 342 341 340
317 324 320 314 309 303 305 312 312 313 311 311 310 317 317 318 324 325 329 331 333 334 340 339 343 347 349 349 347 347 346 346 345 346 346 344 344 344 344 342 341 342 341 341 339 338 336 335 335
319 322 321 310 305 310 311 314 316 312 313 313 312 309 318 324 320 323 329 330 333 336 340 340 343 347 349 348 347 347 346 347 347 346 344 342 341 339 338 337 337 336 336 335 334 333 330 329 329
318 319 310 307 308 312 316 318 317 314 314 316 316 313 314 319 321 321 328 331 334 337 340 342 341 345 348 348 348 347 347 347 347 343 341 340 337 335 334 333 332 332 331 330 329 327 326 326 323
315 318 306 304 309 314 317 320 319 317 316 316 316 315 318 322 318 319 327 331 337 338 340 342 337 340 344 345 346 345 345 345 342 340 338 336 333 331 330 329 328 327 326 326 325 323 321 319 318
310 311 307 308 308 310 314 320 317 317 317 317 321 315 321 321 319 320 326 332 336 339 340 341 342 340 335 338 339 340 340 340 339 336 333 332 330 328 327 325 324 324 325 322 321 319 316 315 314
310 309 305 309 307 308 316 318 320 318 317 324 324 316 316 324 320 319 324 330 334 337 338 339 341 340 339 337 331 332 333 334 334 332 328 326 324 325 324 323 323 322 321 320 318 316 313 312 311
307 300 301 305 307 310 317 315 319 322 319 320 321 321 319 314 315 319 322 328 331 334 335 337 338 338 337 335 329 326 327 328 327 325 321 318 319 318 317 318 321 320 318 318 316 313 310 308 308
297 295 298 304 308 307 310 311 315 315 315 315 318 321 312 312 316 317 319 323 328 330 330 333 333 333 333 331 326 326 324 325 325 322 319 318 315 315 313 314 317 317 317 316 313 310 307 305 309
298 294 299 301 303 304 303 306 312 312 311 316 316 319 320 312 313 316 319 321 324 330 331 330 330 331 331 331 329 328 326 326 324 321 318 315 312 312 312 312 311 312 312 310 309 307 309 309 309
292 297 298 300 301 300 300 305 305 308 312 317 318 321 321 315 312 314 316 318 321 325 329 332 331 330 331 331 326 326 323 322 320 319 316 313 311 311 311 309 309 311 308 309 309 309 309 308 307
294 295 297 298 298 298 300 299 301 302 310 313 314 315 314 313 313 314 316 319 320 321 324 327 331 331 330 326 323 321 318 317 315 314 312 311 311 311 310 310 309 309 309 309 308 308 307 307 307
297 297 297 298 297 298 296 297 298 300 305 305 307 307 308 309 310 311 313 315 318 320 321 323 324 327 324 321 318 316 314 312 311 311 311 311 311 311 309 309 309 309 309 309 308 307 307 307 306
297 293 295 296 297 297 300 295 296 301 302 302 304 305 307 308 309 309 311 312 316 319 319 319 320 321 319 316 314 312 311 309 309 310 311 310 310 310 309 309 308 308 308 308 307 306 306 306 305
293 294 289 296 297 297 297 291 299 305 303 302 302 305 308 309 309 310 311 312 313 317 317 316 315 316 316 312 311 309 309 309 309 310 310 310 309 309 309 308 308 308 307 306 306 305 305 305 304
290 285 289 292 298 296 295 293 299 304 303 303 304 305 306 307 309 310 311 311 312 314 315 314 315 313 313 310 308 308 308 308 308 309 309 309 309 309 308 307 307 308 307 305 304 304 304 303 303
286 286 289 289 294 295 293 293 296 299 299 299 301 302 303 304 305 307 308 310 311 313 313 314 313 311 311 308 306 307 306 307 308 308 308 308 307 307 307 307 307 306 305 305 304 304 302 303 301
289 288 288 291 294 291 291 292 294 297 298 298 299 300 301 303 306 309 310 309 309 311 311 312 311 310 308 304 302 303 302 305 306 307 307 307 307 307 306 305 305 305 305 304 304 303 301 301 300
288 287 287 291 292 291 289 289 293 294 296 297 297 298 299 300 302 303 305 308 308 309 310 310 310 308 307 304 303 303 303 304 305 305 305 306 306 305 305 305 305 303 304 303 302 301 299 300 298
288 287 288 288 291 291 288 287 290 294 296 296 297 298 299 299 299 301 303 305 307 307 308 307 308 307 306 305 304 304 304 303 302 303 303 304 305 305 305 305 304 303 303 301 301 301 300 298 297
284 290 289 288 286 282 289 281 289 293 294 296 297 298 298 299 300 301 301 302 304 306 308 308 307 306 306 305 303 301 299 298 299 301 301 302 305 305 305 305 304 302 302 301 302 300 300 301 296
286 290 288 287 284 284 285 280 286 292 290 293 296 298 298 300 300 300 300 302 303 305 306 306 306 305 305 304 304 302 300 300 300 300 300 301 303 305 304 303 302 302 301 301 301 299 299 299 299
290 286 284 284 283 278 283 284 285 289 293 296 298 297 298 299 299 299 300 300 301 304 306 307 304 304 304 303 303 302 300 299 299 299 299 300 302 303 303 302 302 302 301 300 299 299 299 298 298
287 283 278 275 275 275 286 283 286 293 294 294 295 296 298 297 298 299 299 299 298 301 304 305 304 302 303 303 303 302 302 300 300 299 299 300 301 301 301 301 301 301 301 300 299 299 298 297 296
283 283 280 274 277 280 286 279 287 294 295 296 295 295 296 297 298 296 295 296 296 298 300 302 303 303 303 303 303 303 303 302 301 300 300 301 301 301 302 301 301 300 299 299 298 298 298 297 296
283 279 286 280 282 277 283 284 290 292 292 293 292 294 293 292 292 292 293 294 294 296 298 300 301 302 303 303 303 303 303 302 300 301 301 301 302 301 301 300 300 299 299 299 298 297 296 296 296
284 286 278 280 273 273 279 282 285 290 291 289 289 289 290 291 291 291 291 292 293 294 296 298 300 300 302 302 302 302 302 303 302 302 301 301 301 300 300 300 300 299 298 298 297 296 296 295 295
281 279 282 282 280 277 276 282 286 286 287 287 287 288 288 289 288 289 290 291 292 293 294 295 297 298 300 301 301 302 301 302 302 301 301 301 301 300 300 299 299 298 297 297 296 296 295 294 294
281 281 282 277 277 280 280 282 287 287 287 288 287 287 288 288 288 288 288 289 288 289 291 291 293 296 297 299 300 301 301 301 301 301 301 301 300 301 300 300 299 298 297 297 295 294 295 294 294
Wind_Speed
12 9 4 4 7 7 14 14 7 10 7 5 3 6 8 13 9 3 3 7 12 16 19 20 18 18 18 18 18 16 16 15 14 12 11 10 10 10 10 9 8 7 6 6 6 7 7 6 7
9 6 6 6 9 14 13 15 14 12 15 2 4 8 10 15 13 5 7 11 10 15 17 19 17 18 17 17 17 16 16 15 14 13 12 12 11 11 12 10 7 9 7 8 11 10 10 8 8
10 8 8 7 15 18 17 16 6 12 7 7 7 5 10 5 1 1 5 15 14 16 16 17 18 17 16 18 17 16 14 14 14 14 13 11 10 10 12 11 8 8 9 9 7 8 7 7 6
5 6 6 12 24 22 18 16 13 8 5 6 10 11 6 8 0 2 10 14 16 16 16 18 19 16 15 18 16 16 15 14 15 15 13 12 8 10 11 10 9 8 8 8 7 8 8 7 6
5 7 11 15 29 26 24 23 18 18 15 10 10 16 15 7 6 6 11 13 16 16 15 17 17 16 16 18 18 17 16 15 13 14 14 13 10 10 11 10 10 9 9 9 8 8 8 7 6
8 6 12 18 27 25 25 23 22 21 20 21 14 15 20 4 10 9 12 14 15 16 15 16 15 13 15 18 18 16 14 14 15 14 14 13 12 11 11 10 10 9 9 9 8 8 7 6 5
16 14 18 24 28 27 25 20 20 23 21 23 21 21 14 10 9 10 11 12 15 15 14 14 17 15 11 11 12 13 13 13 14 14 12 12 11 10 11 10 10 10 10 9 9 7 6 5 4
11 13 25 22 25 34 24 23 23 21 24 23 24 21 17 13 15 10 11 13 15 15 15 15 16 14 11 10 11 12 12 12 12 13 12 11 8 7 8 8 9 10 10 10 9 7 6 5 5
8 10 18 26 30 28 20 15 14 19 21 23 15 18 4 4 10 11 12 13 14 13 14 16 14 13 11 10 10 11 11 11 11 12 12 11 8 9 10 5 9 10 9 9 9 7 6 5 5
11 15 25 24 25 25 23 21 17 15 15 20 21 18 5 5 10 14 15 16 18 19 17 15 13 13 11 10 10 9 9 9 11 11 12 9 8 8 8 7 6 7 8 9 7 6 5 6 3
11 23 21 22 25 23 25 21 22 20 26 26 23 22 21 17 15 16 17 18 20 18 16 15 12 11 11 9 10 7 7 8 9 13 11 8 7 6 6 6 5 5 6 6 7 6 5 1 1
20 22 21 23 23 24 23 22 23 26 28 25 24 21 20 17 17 18 18 18 19 21 21 20 18 14 14 11 10 10 9 8 8 10 12 7 6 7 7 6 7 6 5 5 5 3 3 3 3
25 23 23 22 20 22 23 25 24 28 22 25 26 24 20 20 18 19 19 18 19 20 20 21 20 19 16 15 10 10 9 8 9 9 12 9 8 7 7 6 6 6 5 5 5 4 4 3 3
10 12 20 22 21 21 20 24 23 19 21 29 27 25 22 23 24 21 19 21 20 19 20 20 21 18 18 15 15 10 9 10 9 9 10 11 8 7 7 7 6 6 6 5 4 5 4 3 2
18 22 22 23 21 22 13 27 32 26 24 27 24 24 23 24 23 25 22 21 21 19 20 21 20 19 18 17 13 10 10 10 10 9 12 12 10 9 8 6 6 6 5 6 4 4 3 3 3
16 20 19 8 16 15 11 31 15 13 23 27 27 25 22 23 23 23 21 21 20 19 20 19 17 20 19 16 13 10 10 10 9 9 9 13 12 11 8 6 6 5 5 5 4 4 3 2 2
18 21 23 23 15 6 19 28 15 8 10 20 20 20 18 18 19 20 22 21 20 21 20 20 21 21 20 17 12 12 13 10 9 9 8 12 11 10 8 6 6 7 5 4 5 4 2 3 2
18 26 23 24 16 15 19 31 23 23 17 17 18 18 18 19 20 17 20 19 19 20 20 20 18 20 19 13 11 10 9 10 9 9 9 13 10 11 8 7 7 6 5 5 4 4 3 1 1
27 29 32 28 14 7 19 30 28 24 25 23 22 22 23 23 21 21 20 19 19 19 20 22 22 22 17 13 13 12 12 10 9 9 13 14 11 12 10 7 7 7 6 5 6 4 5 3 1
28 30 33 25 21 16 18 34 29 27 27 27 25 25 26 26 24 23 23 19 20 21 21 20 22 23 20 15 14 12 11 9 9 9 11 13 13 12 11 10 8 7 6 7 6 6 3 2 1
30 30 29 27 18 17 16 33 34 28 31 30 29 28 25 26 26 24 20 19 18 20 22 23 23 22 21 19 13 11 10 8 9 10 9 9 10 12 12 11 9 9 6 6 7 6 5 4 2
26 27 24 21 12 17 9 21 25 19 22 18 17 21 22 22 21 19 17 16 18 19 18 19 21 22 21 21 18 20 18 14 11 13 10 12 15 14 12 11 10 9 7 7 6 5 5 3 4
23 8 17 17 19 19 23 11 18 3 10 11 15 18 19 16 15 16 15 13 13 15 15 17 19 20 22 23 21 17 17 11 8 9 14 12 12 12 12 12 11 10 7 7 8 6 5 4 3
8 10 2 5 10 14 31 19 33 18 24 20 11 6 7 2 4 5 6 8 11 11 13 14 19 20 20 21 22 22 21 17 13 13 12 11 10 10 12 12 10 10 8 9 8 8 7 5 3
19 13 8 7 7 14 20 18 30 3 5 14 11 4 3 2 4 6 6 4 6 9 11 12 16 18 19 20 21 20 20 19 18 19 15 16 12 11 13 14 12 10 10 9 8 8 8 7 5
22 22 11 15 15 17 16 12 26 16 15 15 2 6 5 5 5 7 8 7 5 4 7 12 13 15 17 19 20 18 18 13 13 16 13 13 12 13 15 14 13 12 11 10 9 7 6 7 6
16 21 29 13 11 4 8 15 20 16 15 5 6 2 8 8 9 10 11 11 10 5 4 9 11 12 14 15 15 16 16 17 14 16 15 13 14 12 15 15 14 13 12 12 11 7 9 8 7
20 6 14 10 9 14 12 20 14 7 9 6 6 8 10 10 11 12 12 13 11 10 6 2 6 9 10 11 12 13 15 16 14 14 16 16 14 15 16 16 15 14 13 13 12 9 9 9 7
10 12 8 5 12 11 10 9 6 6 8 7 8 9 9 10 11 11 12 13 14 14 12 9 4 3 7 8 9 11 12 13 13 12 14 14 14 15 16 16 16 15 15 14 12 11 11 11 10
5 11 19 9 10 11 15 11 6 9 10 9 9 9 10 11 11 12 13 14 15 15 14 14 12 7 2 5 8 9 10 11 12 12 13 13 15 15 16 16 15 15 14 14 13 13 12 12 12
Wind_Direction
270 239 253 246 259 236 262 250 276 263 247 229 307 255 260 261 278 335 149 149 157 162 155 170 174 177 182 178 173 175 179 180 180 178 180 178 180 184 177 171 174 176 179 176 168 149 121 108 97
285 259 235 265 255 261 257 236 234 246 259 110 273 253 255 257 244 117 158 166 176 166 159 174 171 178 183 182 172 174 180 181 181 181 194 196 201 207 209 177 176 203 192 133 123 110 105 100 89
255 251 267 247 246 253 265 276 251 266 305 222 247 228 288 250 119 35 114 158 173 170 167 173 168 176 182 177 172 172 180 181 188 169 157 131 130 127 118 132 124 119 117 114 110 110 105 85 80
228 201 244 246 253 256 265 281 292 285 218 238 247 270 192 280 82 122 143 164 170 171 175 147 166 178 183 169 171 173 182 187 179 165 154 139 149 122 128 132 137 137 127 123 122 108 100 102 98
236 260 247 250 254 258 264 264 256 271 260 230 219 257 258 173 158 158 165 173 176 173 177 156 166 177 181 174 174 177 185 188 172 150 146 132 147 150 143 144 144 140 138 133 126 120 116 112 103
236 244 241 249 259 252 247 256 260 254 252 262 248 256 264 62 166 186 179 183 183 177 179 167 170 173 170 172 180 180 174 154 145 146 142 150 163 160 154 152 150 148 145 136 132 126 123 120 108
241 242 245 259 267 269 265 265 251 247 259 251 249 245 271 182 188 181 190 188 188 178 180 173 180 182 156 154 142 140 143 150 150 146 147 164 163 163 159 155 158 155 143 144 137 132 125 119 101
250 248 258 254 260 265 270 273 263 253 255 262 256 241 247 273 150 171 190 190 193 182 180 185 176 170 160 150 138 139 142 142 144 147 151 141 138 144 138 143 162 157 152 148 141 137 133 128 116
243 246 242 245 251 266 266 254 262 279 242 260 257 264 283 86 136 173 188 193 193 188 189 183 173 173 167 158 145 139 140 138 134 132 132 140 172 174 159 141 147 157 159 153 148 147 142 158 151
216 235 238 249 265 275 280 286 275 255 246 243 243 238 161 190 184 190 194 197 199 194 195 193 179 172 164 163 147 152 150 161 173 172 170 182 174 179 191 131 137 156 157 154 155 158 175 210 185
229 246 254 250 259 275 283 278 276 268 258 257 249 240 225 204 208 215 209 209 204 201 192 194 181 176 170 175 169 177 171 179 183 184 183 196 174 157 157 153 164 169 175 178 186 185 210 172 250
256 254 256 258 272 282 276 278 263 260 255 262 269 268 257 205 218 219 223 215 207 203 200 191 190 185 185 187 182 182 178 185 182 187 184 176 172 177 181 178 183 187 187 194 198 186 177 192 191
246 254 270 267 265 269 275 261 263 259 255 259 259 259 269 257 224 231 229 222 215 207 200 196 196 190 188 189 187 185 184 186 188 182 184 180 184 178 180 186 177 191 189 195 187 185 193 197 213
276 266 268 268 268 268 262 267 256 248 245 251 256 254 245 241 250 235 225 229 216 209 203 197 200 195 189 190 184 182 186 180 184 180 181 188 183 179 183 179 185 185 191 187 192 188 195 202 214
269 270 269 258 255 247 270 271 249 249 245 249 252 251 247 249 240 245 238 222 225 212 203 197 194 194 195 190 187 182 182 179 182 181 178 183 185 183 183 179 179 184 185 182 179 189 199 214 202
259 258 263 269 235 227 189 259 267 279 225 244 249 254 251 247 240 247 237 234 216 216 206 199 194 195 195 190 186 181 180 181 180 181 175 180 184 180 179 177 182 162 169 187 194 187 203 223 206
237 260 259 260 212 191 204 263 263 259 263 245 245 250 253 251 246 238 239 232 219 213 203 198 192 196 193 189 183 181 181 183 180 179 177 179 181 176 174 173 176 167 174 180 186 174 227 201 214
243 247 252 258 271 220 242 255 265 276 270 255 261 264 253 246 246 238 234 232 228 216 205 196 188 193 188 183 181 180 179 183 180 179 179 174 176 176 175 173 164 176 179 170 189 166 165 246 335
249 261 270 271 274 268 262 269 264 263 261 258 252 250 249 250 249 246 230 220 221 214 206 201 188 186 181 183 180 178 182 182 179 182 177 175 174 172 176 167 167 182 186 173 174 165 166 169 140
240 250 257 267 260 250 265 271 273 266 264 257 254 250 249 247 242 243 235 222 207 211 205 201 196 188 186 181 182 179 174 181 175 174 180 175 178 173 174 168 174 179 181 171 168 173 144 113 155
232 239 249 252 258 259 261 276 274 263 247 245 249 252 253 248 245 241 240 222 206 207 201 202 196 189 187 183 174 173 165 157 178 183 173 175 164 173 176 175 169 175 175 174 179 181 173 155 145
239 233 252 261 264 250 223 277 271 281 276 259 247 246 248 249 245 248 246 232 207 210 206 203 195 190 185 181 181 181 176 174 188 180 173 166 177 180 180 173 173 169 176 169 181 176 184 160 161
238 267 242 243 235 253 251 250 281 293 268 253 253 243 246 255 250 244 242 233 214 204 206 199 199 192 186 185 186 184 183 183 167 172 168 171 175 178 173 172 170 173 176 168 172 164 177 185 154
227 222 142 247 233 234 243 231 277 257 257 267 289 288 304 10 312 266 269 279 245 211 202 198 198 196 190 189 191 190 184 176 167 168 170 173 168 171 177 175 175 173 172 169 169 170 178 176 172
204 191 205 212 208 236 246 218 244 134 209 298 284 274 194 311 321 342 326 292 257 235 194 201 201 198 192 192 196 192 190 183 175 171 176 172 173 181 180 176 177 176 173 167 165 172 173 177 173
201 200 207 222 226 245 230 219 239 237 260 273 340 277 291 289 37 30 24 13 348 266 223 208 202 202 195 194 197 193 194 190 182 180 178 181 179 179 176 176 173 170 168 167 164 174 174 174 183
201 223 231 285 282 263 259 240 269 279 257 283 32 44 63 52 44 39 31 30 20 8 240 217 209 210 197 197 197 196 196 195 187 181 181 180 176 174 170 174 171 169 172 171 170 177 175 177 184
254 314 223 224 234 237 245 259 265 233 245 70 39 44 45 38 36 37 34 32 32 29 15 280 218 200 208 198 200 200 197 199 189 182 184 180 175 170 170 172 174 172 172 172 174 174 176 180 188
203 238 246 260 241 248 248 239 10 21 40 76 63 49 39 40 36 38 37 36 34 34 33 32 16 214 194 200 209 205 201 201 193 188 187 179 170 169 172 174 174 175 174 175 177 176 175 184 186
314 277 243 251 236 241 258 259 69 82 76 84 78 64 52 47 44 41 40 40 37 32 33 32 24 20 328 220 213 205 201 199 202 195 190 180 177 175 176 175 177 176 175 176 177 179 181 187 193